GEFSMW_500_meanwind_120.txt.gz
Wind_Speed
20 21 21 21 23 23 23 24 24 24 24 25 25 25 26 26 27 27 28 29 29 28 28 28 29 31 31 31 32 31 31 30 30 30 29 28 28 28 28 28 28 29 28
19 20 20 21 22 22 23 24 25 26 26 26 26 26 27 27 28 28 29 28 28 29 29 29 29 30 31 32 33 33 32 31 31 31 31 30 30 29 29 30 30 31 31
20 20 20 20 21 22 22 23 24 26 26 26 26 26 27 27 28 29 29 29 29 29 29 30 31 31 31 31 32 32 32 32 31 32 31 31 30 31 31 31 31 32 32
20 20 21 21 22 22 23 24 24 25 25 26 26 26 27 28 28 29 29 29 30 30 31 31 31 32 32 32 32 32 32 32 32 32 33 32 31 31 31 32 33 32 33
21 21 22 22 22 23 23 24 24 25 26 26 27 27 27 28 28 29 28 28 29 30 31 31 32 32 32 33 33 33 32 31 32 32 32 32 32 31 31 31 32 33 33
21 21 21 22 23 24 24 25 25 25 26 26 27 27 27 28 28 28 28 28 29 30 30 31 32 32 32 32 32 31 31 31 31 32 32 31 31 32 31 31 33 33 34
21 22 22 23 24 25 26 26 27 26 26 26 27 27 28 28 28 29 29 29 29 29 30 30 31 32 32 31 31 31 31 31 32 32 32 31 30 32 32 32 33 34 34
22 22 23 24 25 25 26 26 27 27 27 27 28 28 29 29 29 29 30 29 29 29 29 30 30 30 31 31 31 32 31 32 32 32 32 32 32 33 33 33 33 35 35
21 22 23 23 24 24 25 25 26 27 28 29 29 28 29 29 29 30 30 31 31 31 30 29 28 29 29 31 31 32 32 33 33 33 33 33 33 33 34 34 34 34 35
20 21 21 22 23 24 24 25 26 26 27 28 28 28 29 30 30 30 30 30 31 30 30 29 29 29 29 31 32 31 31 32 33 34 34 34 34 35 35 35 35 34 35
21 21 22 22 22 23 24 24 25 26 27 27 28 28 28 29 29 30 30 30 30 29 29 28 29 29 29 30 30 31 31 31 33 34 34 35 35 35 34 35 35 35 35
21 21 22 22 23 23 24 24 25 25 26 26 26 26 26 27 28 28 28 28 28 28 27 27 27 28 28 28 29 29 31 31 31 32 32 32 33 33 32 34 34 34 35
22 22 22 23 23 23 23 24 24 25 24 25 25 25 25 25 26 26 26 26 26 26 26 26 26 26 26 27 28 29 29 30 30 30 30 31 31 31 32 32 33 33 34
23 23 23 23 24 24 24 24 24 24 24 24 24 23 23 23 22 22 22 23 24 25 25 26 26 25 26 27 27 27 28 29 29 29 29 29 30 30 31 30 31 32 34
23 23 23 23 23 24 24 23 23 23 23 23 22 22 21 21 20 20 20 21 21 23 23 23 23 24 24 25 25 26 26 26 27 28 28 28 29 29 29 29 30 31 31
22 22 23 23 23 22 22 22 22 21 21 21 20 20 19 19 18 18 19 19 19 19 20 20 21 20 21 22 22 23 24 24 25 26 27 28 28 28 28 29 29 28 29
22 22 22 21 21 20 20 19 20 19 19 18 18 17 16 15 15 15 15 16 17 17 17 17 18 18 19 19 20 21 21 21 23 24 24 25 25 25 25 26 27 28 29
21 21 21 20 19 18 18 18 18 17 17 16 16 15 14 13 13 12 12 12 13 13 14 14 15 16 16 16 17 17 18 18 19 20 20 21 21 22 23 24 25 25 26
20 20 19 18 17 16 16 16 15 15 14 14 13 12 12 11 10 10 10 9 10 10 11 11 12 13 13 12 13 14 15 15 16 16 17 18 19 20 20 20 21 22 22
19 19 17 16 16 15 14 13 12 12 12 11 11 10 9 9 8 8 8 8 7 7 7 7 8 9 9 10 10 11 12 13 13 14 14 14 15 15 16 17 18 18 19
18 17 16 15 14 13 11 10 10 10 9 9 8 8 7 7 6 6 5 5 5 5 5 6 6 6 6 6 6 7 8 9 10 11 11 12 12 13 14 15 15 15 16
15 14 13 12 10 10 8 8 8 8 7 7 6 6 5 5 4 4 3 3 3 3 4 3 3 2 2 3 4 4 5 6 6 7 8 8 9 10 11 12 12 12 12
13 12 11 9 8 7 6 6 5 5 5 5 5 4 2 1 1 1 1 1 1 1 1 1 1 1 1 1 1 2 2 3 3 4 4 5 6 7 8 8 8 9 9
10 9 8 7 6 5 4 4 4 4 5 4 4 3 3 3 3 4 4 3 3 4 4 4 3 3 3 3 3 3 3 3 3 4 4 5 5 6 6 6 6 6 7
8 7 6 6 5 4 4 4 4 5 5 5 6 6 6 7 7 7 7 7 6 6 6 6 6 5 5 6 7 7 6 6 5 5 5 5 5 5 5 5 5 6 6
6 6 6 6 5 5 5 6 6 6 7 8 9 9 9 9 9 9 9 8 8 8 8 8 8 8 8 8 8 8 7 7 7 7 7 6 6 6 6 5 5 5 5

GEFSMW_500_meanwind_126.txt.gz
Wind_Speed
20 20 20 20 22 22 22 22 23 24 25 26 26 27 28 28 29 29 29 30 30 30 30 31 31 32 32 32 32 31 30 30 31 31 30 29 29 28 29 29 28 27 27
20 20 21 21 22 22 23 24 25 26 26 27 27 27 28 29 30 30 30 31 31 31 31 32 33 33 33 33 33 33 32 32 32 32 32 32 31 30 30 30 29 28 29
20 21 22 22 22 23 24 25 25 27 27 28 28 28 29 30 30 31 31 32 32 32 32 33 34 34 33 33 33 33 32 32 33 33 32 31 31 31 31 31 31 30 30
21 21 22 23 24 25 25 26 27 28 28 28 29 29 30 31 31 32 32 32 32 31 32 32 33 34 33 32 32 32 32 31 32 32 32 32 32 32 31 31 31 31 31
22 22 24 24 25 26 27 28 28 29 29 29 30 30 30 31 31 31 32 32 31 31 31 31 31 32 31 31 31 32 32 31 31 31 32 32 33 32 31 30 31 31 31
23 24 25 25 25 26 27 28 29 29 30 30 31 31 31 31 30 31 31 31 31 31 31 31 31 31 31 31 31 32 31 31 31 32 32 32 32 31 31 31 30 31 31
23 24 24 24 25 26 27 28 28 29 30 30 30 31 31 30 30 30 31 30 30 30 31 32 31 31 31 31 30 31 31 31 31 32 32 32 32 31 31 31 30 31 32
22 23 23 24 25 26 27 28 29 29 30 30 30 30 31 31 30 31 31 31 30 31 31 32 31 31 31 31 31 31 31 31 30 30 31 31 32 33 32 32 31 32 32
22 22 23 25 26 26 27 28 29 29 29 29 30 30 30 30 30 31 31 31 31 31 31 31 31 31 31 31 31 31 31 31 30 30 30 31 31 31 32 32 32 32 33
23 23 24 25 26 26 27 27 28 28 29 29 29 28 28 29 29 29 30 31 31 31 31 31 31 31 31 31 31 31 31 31 30 31 32 31 31 32 32 32 32 33 33
24 24 25 26 27 27 27 27 27 27 28 27 27 28 28 29 29 29 29 29 30 30 30 30 31 31 30 30 31 30 30 30 30 31 31 31 31 32 32 32 32 33 33
24 25 26 27 27 27 27 27 26 25 26 26 26 26 26 27 27 27 27 28 28 28 29 28 28 29 29 29 30 30 30 30 30 29 29 30 31 32 32 32 32 32 32
24 25 25 26 26 26 26 26 25 25 25 25 25 25 25 25 25 25 26 26 27 26 26 26 25 26 27 27 27 28 28 28 28 28 27 27 28 29 29 30 30 30 31
25 25 26 26 25 25 25 24 24 25 24 24 25 25 25 25 25 25 25 25 24 24 24 24 24 24 24 25 25 25 25 26 26 25 26 26 27 27 28 28 29 30 30
25 25 24 24 24 23 23 23 23 23 23 23 24 24 24 24 23 23 23 23 22 22 22 22 23 23 23 23 23 23 23 23 23 23 23 24 25 26 26 27 28 28 28
24 24 23 23 23 23 22 22 21 21 21 22 22 22 21 21 21 21 21 21 20 21 21 21 21 21 21 21 21 21 20 20 20 20 21 21 22 23 24 25 26 26 26
22 23 23 23 22 21 21 20 20 19 19 19 19 19 19 18 18 18 17 17 17 17 17 17 17 17 18 17 17 17 18 18 17 18 19 20 21 21 22 22 22 22 23
22 22 21 21 20 20 19 19 18 18 18 18 18 18 17 17 16 15 14 15 15 14 14 14 14 14 14 14 15 15 15 16 16 16 16 17 17 18 19 19 20 21 21
22 21 20 19 19 18 17 17 16 16 16 16 16 17 16 14 12 11 11 11 11 11 11 11 11 11 11 12 12 13 13 14 14 14 14 14 15 15 16 16 17 17 18
20 19 18 18 17 16 15 15 15 14 14 14 15 15 13 12 10 10 9 9 8 7 7 7 8 8 8 9 9 10 10 10 10 10 10 11 11 12 13 13 13 13 14
19 18 17 16 15 14 13 13 13 13 13 13 13 12 10 9 9 8 7 7 6 5 5 5 6 5 5 5 5 5 6 7 7 7 7 8 8 8 8 8 9 9 9
16 15 14 13 12 11 11 11 11 11 11 11 10 9 8 7 6 6 5 4 4 4 4 4 3 3 3 2 2 2 2 2 2 3 3 3 4 4 5 5 6 6 7
13 12 12 11 10 9 9 9 9 9 9 9 8 8 7 6 5 4 3 3 3 3 4 4 4 4 4 5 5 5 5 4 4 4 4 4 4 4 3 4 4 5 5
11 10 10 10 8 8 7 7 7 8 8 7 8 8 7 7 6 4 4 3 4 5 6 6 7 7 7 7 7 7 7 7 7 7 7 6 6 5 5 4 5 5 5
10 9 9 8 7 7 6 7 7 7 7 7 7 7 7 7 7 7 6 6 6 6 7 8 8 9 9 9 9 9 9 9 9 9 9 8 8 7 7 7 6 6 6
9 8 8 8 7 6 6 6 6 6 7 7 8 8 8 8 8 9 8 8 8 8 8 9 10 10 10 10 11 11 11 11 10 10 10 10 10 9 9 9 9 8 8

GEFSMW_500_meanwind_132.txt.gz
Wind_Speed
16 17 17 16 16 16 16 18 18 18 20 21 22 23 23 23 23 24 24 25 25 25 25 25 26 27 28 27 28 28 28 27 28 28 28 28 28 27 28 29 28 27 26
17 16 16 16 17 18 18 18 18 19 21 22 23 24 24 25 25 25 25 25 26 26 26 26 26 27 28 28 28 29 29 29 29 29 29 28 28 28 29 29 30 29 28
17 16 17 17 17 18 19 20 20 21 22 23 24 25 25 26 26 26 26 27 27 27 27 27 28 28 28 28 28 28 28 28 29 29 28 28 27 29 29 29 29 30 30
16 17 17 17 17 19 20 21 21 22 23 24 25 26 27 27 27 28 28 28 28 28 28 28 28 28 29 29 29 28 28 28 28 28 27 27 27 28 28 28 29 29 29
17 17 17 18 19 20 21 21 22 23 24 24 25 26 27 27 28 28 29 29 28 28 28 29 29 29 28 29 29 28 28 28 28 28 28 28 27 27 28 28 28 28 28
16 17 18 18 19 20 21 21 22 24 25 25 26 27 28 28 28 28 28 28 27 27 28 29 30 29 29 28 28 28 27 27 27 27 27 27 27 26 27 27 28 28 28
16 16 17 18 20 20 21 22 23 25 26 27 27 28 28 28 29 29 28 28 27 27 28 28 29 29 29 28 28 28 28 28 27 27 28 28 28 27 27 27 27 28 27
16 16 17 19 20 21 22 23 24 26 27 28 29 29 29 29 29 29 29 28 28 28 28 28 28 28 28 28 28 28 28 27 27 27 27 27 28 27 27 27 28 28 28
16 16 18 19 21 22 24 24 25 27 27 28 29 30 29 29 29 29 29 29 28 28 29 29 28 28 28 28 28 28 28 28 27 27 27 27 27 26 26 27 27 28 28
15 17 18 20 22 23 25 25 26 27 27 27 27 27 27 28 28 28 28 28 28 29 29 28 28 27 27 28 28 28 28 28 28 28 27 27 27 26 26 26 26 27 28
16 18 20 22 23 23 24 25 26 26 26 26 25 25 25 25 26 26 26 26 27 28 27 27 26 26 26 26 26 26 27 27 28 28 28 28 27 26 26 26 27 27 28
17 19 21 22 22 23 24 24 25 25 25 24 24 24 23 23 24 24 25 25 26 25 25 25 26 25 25 24 24 24 24 25 26 26 26 27 26 26 26 26 26 26 27
18 20 21 21 22 23 23 23 23 23 23 23 23 23 23 23 23 24 24 24 24 24 24 24 24 24 23 23 23 22 22 23 23 24 24 24 24 25 25 25 26 26 25
19 21 21 21 21 21 21 21 21 21 21 22 22 22 22 23 23 23 23 23 23 23 22 22 22 22 22 22 21 21 21 22 22 23 23 23 23 23 24 24 25 25 25
20 19 19 19 19 20 20 20 20 20 21 21 21 21 21 22 21 21 21 21 20 20 20 19 20 20 20 20 19 19 19 20 20 21 21 22 22 22 23 23 23 24 24
19 19 19 18 18 19 19 19 19 19 20 20 20 20 19 19 18 18 18 17 17 17 17 16 17 17 18 17 17 17 17 17 17 17 17 18 19 20 20 20 20 21 21
19 20 19 17 18 18 18 18 18 18 18 18 18 18 17 17 16 15 15 15 14 14 14 14 14 14 14 14 15 14 14 14 14 13 14 15 16 17 17 17 18 19 19
19 19 18 18 18 17 16 16 17 17 17 17 16 16 15 14 14 14 14 13 12 12 11 11 10 10 10 10 11 11 11 11 11 12 13 13 13 14 15 15 15 15 16
17 17 17 17 16 15 15 15 15 16 16 15 14 14 12 12 12 12 11 11 10 10 9 8 7 6 6 6 6 6 7 7 8 9 10 10 9 10 11 11 12 12 13
16 16 16 15 14 14 14 14 14 14 13 13 12 11 10 10 10 9 9 9 8 7 6 5 5 5 4 4 3 3 3 3 4 5 5 5 5 6 7 7 8 8 9
16 15 14 13 13 13 13 12 12 12 11 11 9 9 9 9 8 7 6 7 6 6 5 5 4 4 4 4 3 2 2 1 1 1 1 1 1 1 1 2 3 3 4
14 13 12 11 11 10 10 10 9 9 9 8 8 7 7 7 6 6 6 6 7 6 7 6 6 5 5 6 7 6 5 5 5 5 5 4 4 3 3 2 2 1 2
12 11 10 10 9 8 8 8 8 8 8 7 7 6 6 6 6 6 6 7 7 7 7 8 8 8 8 9 10 10 9 9 9 8 7 6 6 6 5 5 4 4 3
11 9 8 8 7 6 6 6 6 7 8 7 7 6 7 7 8 8 8 8 8 8 9 10 10 10 10 11 11 11 11 11 11 10 10 10 10 9 8 7 7 7 6
8 7 7 7 7 6 6 6 6 7 7 7 7 8 8 8 8 9 9 10 10 10 10 11 12 12 12 12 12 11 12 13 13 13 13 13 12 11 11 10 10 9 9
7 7 7 7 7 6 6 7 7 7 7 8 8 8 9 10 10 10 11 11 12 12 13 13 13 13 13 13 14 14 15 15 15 15 15 15 15 14 14 13 13 12 12

GEFSMW_500_meanwind_138.txt.gz
Wind_Speed
16 17 17 17 18 18 18 17 18 17 18 19 20 20 21 20 21 21 21 21 22 23 25 25 25 26 26 26 27 27 27 27 28 28 29 29 29 29 28 27 27 27 28
17 18 17 18 19 18 18 18 18 19 20 20 21 21 21 21 22 22 23 24 24 24 26 26 27 27 28 27 27 27 28 29 29 29 29 29 29 29 29 27 27 28 27
16 17 17 18 19 19 19 19 19 20 20 20 20 22 23 23 24 24 24 25 26 26 27 27 28 28 28 28 28 28 29 29 29 30 30 30 29 30 29 28 28 28 28
18 18 18 18 19 19 19 20 19 19 20 21 22 23 24 25 26 26 26 27 27 27 28 29 29 29 29 29 29 29 29 29 29 29 29 29 28 29 28 28 28 28 27
19 19 19 19 20 21 21 20 20 20 21 23 24 25 25 26 26 27 27 27 27 27 27 28 28 28 29 29 29 29 29 29 29 29 29 29 29 28 27 28 28 28 28
19 20 20 21 21 22 23 23 22 22 23 24 25 26 27 27 28 28 28 28 28 27 27 28 28 28 29 29 29 29 30 29 29 29 29 30 30 29 28 28 28 28 29
20 20 20 21 22 22 22 23 23 23 24 25 26 27 28 29 30 29 30 29 29 29 29 29 29 29 28 28 29 29 29 29 29 30 30 30 30 30 30 29 29 29 29
20 21 21 22 23 23 23 23 23 24 25 25 26 28 29 30 31 31 30 30 30 30 30 29 30 29 29 29 29 29 29 29 29 30 30 30 30 30 30 30 30 30 29
19 20 22 23 23 23 23 23 24 24 25 26 27 28 28 28 28 29 30 30 29 29 29 28 28 28 29 29 29 29 29 28 29 29 29 30 30 30 30 30 30 30 29
18 20 22 22 22 22 23 23 23 24 25 26 26 26 26 26 26 25 26 26 27 28 28 27 27 28 28 28 28 28 28 28 29 29 30 30 30 29 29 29 29 29 29
18 19 20 21 22 22 21 21 22 23 23 23 24 24 24 24 23 23 23 23 23 24 24 25 26 27 27 27 27 28 28 28 28 29 29 28 28 29 29 29 29 29 28
19 19 20 21 21 20 20 21 21 22 22 22 22 22 22 22 21 21 21 21 21 22 22 23 24 25 25 26 27 27 27 26 26 26 26 27 27 27 27 28 27 28 28
19 19 20 20 19 19 20 20 21 22 22 22 22 21 21 21 20 20 20 20 21 21 21 22 22 23 23 24 24 25 25 25 25 25 25 25 26 26 26 26 26 26 27
18 18 17 18 18 18 19 19 20 21 21 22 21 21 20 20 19 18 18 18 19 19 19 20 20 21 21 22 22 23 23 23 22 22 23 23 23 23 24 24 24 24 25
16 17 18 17 17 17 18 19 19 20 20 20 20 19 18 17 17 17 17 17 17 17 18 18 18 19 20 20 20 20 21 21 20 20 20 20 20 20 21 21 22 22 23
16 17 17 17 17 16 17 17 18 18 18 18 17 17 16 15 15 15 15 15 15 16 16 15 15 16 16 16 17 17 17 17 17 17 17 17 17 17 17 18 18 19 19
16 17 17 16 16 16 16 17 16 17 17 16 15 14 14 13 13 13 14 14 14 14 13 13 13 14 13 13 12 12 12 13 13 13 13 13 13 14 14 15 15 15 16
16 16 16 16 15 15 15 15 15 16 16 15 15 14 13 13 13 13 13 13 12 12 11 11 11 10 10 9 10 9 9 9 9 9 9 9 10 11 11 11 11 12 12
15 15 15 14 14 13 13 14 14 15 14 13 13 12 12 12 12 11 11 11 11 11 10 9 8 7 7 7 6 5 5 5 6 6 6 6 6 6 7 7 8 9 8
14 13 13 12 12 12 13 13 13 12 11 10 11 11 11 10 10 9 9 9 9 9 8 7 6 5 5 4 4 3 3 3 3 3 3 3 2 2 3 4 4 5 5
13 13 12 12 11 11 11 11 11 9 9 10 10 9 9 9 8 8 7 7 7 7 7 7 6 5 4 4 4 3 3 3 2 2 2 2 1 1 0 1 1 2 2
12 11 11 10 9 9 8 8 8 8 9 9 8 8 8 7 7 7 7 7 7 7 7 7 7 6 5 5 5 5 5 5 5 6 6 5 5 5 4 4 4 3 3
10 9 8 8 7 6 6 6 7 7 7 7 7 7 7 7 7 7 7 7 7 8 8 8 8 7 7 7 8 9 9 9 9 8 8 8 9 8 8 7 7 6 6
8 7 7 6 5 6 6 6 7 7 6 6 6 6 6 6 7 7 7 8 8 8 9 9 9 9 9 10 10 10 11 11 11 11 10 10 10 10 10 9 9 8 8
8 7 7 6 6 6 6 6 6 6 6 6 6 7 7 7 8 8 8 8 9 10 11 11 11 12 12 12 12 12 13 14 14 14 13 13 13 13 13 13 12 12 11
8 7 7 6 5 5 6 6 6 6 7 6 7 7 8 8 9 9 10 10 10 11 11 12 13 13 14 14 14 15 15 15 15 15 15 15 15 14 14 13 13 13 13

GEFSMW_500_meanwind_144.txt.gz
Wind_Speed
18 18 18 18 17 16 16 16 17 18 19 19 20 21 22 23 24 24 25 26 26 26 27 27 27 26 27 27 28 28 28 28 28 29 29 30 30 30 30 30 30 30 30
19 19 19 19 18 17 17 18 18 18 19 20 21 22 22 23 24 25 25 26 26 27 28 28 28 28 28 29 29 29 29 29 29 30 30 30 31 31 30 31 31 31 31
19 20 19 19 19 19 19 19 19 19 19 20 22 23 24 24 25 26 26 26 27 28 29 29 30 30 30 31 31 32 31 31 31 31 31 30 31 31 31 31 32 32 32
19 19 20 20 20 20 20 20 21 21 21 21 23 24 24 24 25 27 27 28 28 29 30 31 31 32 32 32 32 31 31 31 31 32 31 31 31 31 31 31 32 32 32
19 20 21 21 22 22 22 21 22 23 22 22 23 24 25 26 27 28 28 29 30 30 31 32 33 33 33 33 32 31 32 32 31 31 31 32 32 32 31 31 32 32 32
20 21 21 21 21 22 22 22 23 24 24 24 24 24 25 26 27 28 29 30 31 32 32 33 33 33 33 33 33 33 33 32 32 32 32 32 32 32 32 32 32 32 32
19 20 20 20 21 21 23 23 23 23 24 24 24 25 25 26 27 29 30 31 32 32 33 34 34 34 35 34 34 34 34 33 32 32 32 32 32 32 32 32 31 32 32
17 18 19 20 21 22 23 22 23 25 25 25 25 25 26 26 27 28 29 29 30 31 32 32 32 33 33 33 33 33 33 33 32 32 32 32 33 33 32 32 32 31 31
18 19 20 21 21 23 23 22 23 25 25 25 25 24 24 24 24 25 25 26 27 27 28 29 30 29 30 31 31 31 31 32 32 31 32 32 32 31 31 31 31 31 31
20 20 21 21 22 23 23 23 23 24 24 24 24 23 22 23 23 23 23 24 24 24 25 25 26 27 28 28 29 30 30 30 31 31 30 31 31 30 30 30 30 30 30
20 20 20 21 22 23 23 23 23 23 23 23 22 22 22 22 22 23 23 23 23 23 23 22 23 24 25 25 25 26 27 27 28 28 28 29 29 29 30 30 29 29 29
19 19 20 21 21 22 22 22 22 22 22 21 20 20 20 21 22 22 23 22 22 22 23 22 22 22 23 23 23 23 23 24 25 25 26 26 27 28 28 28 28 28 28
18 19 20 20 21 22 21 21 21 21 21 20 19 19 19 20 20 21 20 20 20 20 20 21 21 21 21 22 22 21 22 22 22 23 23 23 24 25 26 26 26 26 25
18 18 19 20 20 20 20 21 20 19 19 18 18 18 18 18 19 19 18 18 18 18 19 18 18 19 19 19 19 20 20 20 20 20 20 20 21 21 22 22 22 22 22
17 18 18 19 19 19 19 18 18 18 17 17 17 17 17 17 17 17 16 16 16 16 16 16 16 16 16 16 17 17 16 16 16 16 16 17 17 18 19 19 18 19 19
17 17 17 17 17 17 17 18 18 17 17 16 16 16 16 16 15 15 14 14 14 14 14 13 13 13 13 13 13 13 13 13 13 13 13 13 13 13 14 14 15 15 16
16 16 16 15 15 16 16 17 16 15 15 14 14 15 15 14 14 14 13 13 13 13 13 12 12 11 11 11 10 10 10 10 10 9 9 9 9 9 10 10 11 11 11
16 16 14 14 14 15 15 14 13 13 13 12 12 12 12 12 11 11 11 11 11 10 10 9 9 9 9 8 8 7 7 7 6 6 5 5 6 6 6 7 7 8 8
15 14 13 13 13 13 13 12 11 11 10 10 10 10 10 10 9 9 9 9 9 9 8 8 8 8 8 7 6 5 3 3 3 3 3 3 3 4 4 5 5 5 5
14 13 12 11 11 10 9 9 9 8 8 8 9 8 8 8 8 8 8 8 8 7 7 6 7 7 6 5 5 4 2 1 0 1 2 2 3 3 4 4 3 3 2
12 11 10 10 9 8 7 6 7 7 7 7 7 7 7 7 7 7 7 6 6 6 6 6 5 5 5 5 4 4 3 3 3 3 4 4 5 5 6 6 5 4 3
9 9 8 7 6 6 6 6 5 5 5 6 6 6 7 7 6 7 6 6 6 6 6 6 5 5 5 6 6 7 6 6 7 7 7 7 8 8 8 8 7 6 5
8 7 6 5 5 4 4 4 4 4 5 6 6 6 6 6 6 6 6 7 7 7 6 6 6 7 7 7 8 8 8 8 9 9 10 10 10 10 9 9 8 8 8
6 6 5 4 4 3 3 4 4 4 5 5 5 6 6 7 7 7 7 8 9 9 8 8 8 8 9 10 10 10 11 11 11 12 12 12 12 11 10 10 10 10 9
6 5 5 4 4 3 4 4 4 4 4 5 5 6 6 7 7 7 8 8 9 10 10 10 10 11 11 12 12 12 12 13 13 14 14 14 14 13 13 13 12 12 11
6 5 4 4 5 5 5 5 5 5 5 6 6 7 7 8 8 8 8 9 9 10 11 11 11 12 12 12 12 12 13 14 15 15 15 14 13 13 13 13 13 13 13

GEFSMW_500_meanwind_150.txt.gz
Wind_Speed
22 22 21 20 20 21 21 22 22 22 23 22 22 23 23 24 24 24 25 26 27 27 27 28 28 29 29 27 28 28 27 27 27 27 27 27 28 28 27 27 27 28 28
22 22 21 21 21 21 22 22 23 24 24 24 24 24 25 25 25 26 26 27 27 27 28 29 30 29 30 29 28 28 28 28 28 28 28 28 28 28 28 28 28 27 28
21 21 22 22 22 23 23 24 24 25 25 25 25 26 27 27 27 27 27 27 26 27 28 30 31 31 31 30 31 30 30 30 30 30 30 29 28 27 27 28 28 28 29
22 22 22 22 22 22 23 24 25 25 26 25 26 27 28 28 28 28 29 29 29 29 30 31 31 32 32 32 32 32 31 31 31 31 31 31 30 28 27 28 28 28 28
23 23 23 23 22 23 24 24 24 25 25 25 26 27 28 30 30 30 30 29 30 31 31 31 32 32 31 32 32 32 32 31 31 31 30 30 30 30 29 28 28 28 28
21 22 23 23 23 23 24 24 25 24 25 26 26 28 29 30 30 30 29 30 30 31 31 31 32 32 31 32 33 33 32 31 31 31 31 30 30 30 30 29 29 29 29
20 21 23 23 24 25 25 25 25 25 26 27 27 28 29 29 29 29 29 29 29 29 29 30 30 31 31 32 32 32 31 31 32 32 32 31 31 31 31 31 30 30 30
21 22 23 23 24 24 24 25 26 26 26 27 28 29 29 28 27 26 26 27 27 27 28 29 29 30 30 30 31 31 31 30 30 30 30 31 31 31 31 31 30 30 29
21 21 23 23 24 24 25 25 25 26 26 26 27 27 27 27 26 25 25 24 25 26 26 27 27 28 28 28 28 28 28 28 28 28 29 29 30 30 30 30 30 30 29
21 21 22 23 23 23 24 25 25 25 25 25 26 26 26 26 25 24 24 24 25 25 25 25 25 25 25 25 26 27 27 27 27 27 27 27 27 28 29 30 29 29 28
22 22 23 24 24 24 24 25 24 25 25 25 25 25 25 24 24 24 23 24 24 24 25 24 24 23 23 24 24 24 24 25 25 25 25 25 26 26 27 27 27 27 26
23 23 23 24 24 24 23 24 24 23 23 23 24 24 23 24 24 23 23 23 23 22 22 22 22 22 22 22 22 22 22 22 23 23 23 23 24 24 24 24 24 24 24
24 24 24 23 23 23 23 23 23 22 23 23 23 24 23 23 23 23 22 21 21 21 21 21 21 21 20 20 21 20 20 19 20 20 21 21 20 20 20 21 21 21 21
23 23 22 22 22 22 22 22 21 21 21 22 23 23 22 21 21 21 20 20 20 20 20 20 19 19 19 19 18 18 17 17 17 17 16 17 17 16 17 18 18 18 18
22 21 21 21 21 21 20 20 20 19 19 20 20 20 20 20 19 19 18 19 19 19 19 18 18 17 17 17 16 15 15 15 15 15 14 14 14 14 14 15 15 15 15
20 20 20 20 20 19 19 19 19 18 19 18 18 18 18 18 17 17 17 17 17 17 17 16 16 15 15 14 13 13 13 13 13 12 11 11 11 11 11 11 12 12 12
19 19 18 18 18 18 18 17 16 16 16 16 15 16 16 15 15 15 15 15 15 15 14 14 13 13 12 11 10 10 10 10 9 9 9 9 8 8 8 7 8 8 9
18 17 16 16 16 16 15 15 14 14 13 13 13 14 14 13 12 12 12 12 12 12 12 11 11 10 9 9 8 8 8 7 7 6 6 6 6 5 5 4 4 5 5
17 15 15 14 13 13 13 13 11 11 11 11 12 11 11 11 10 11 11 11 10 10 10 10 9 8 7 7 7 6 5 5 4 4 4 3 3 2 2 2 2 3 4
15 14 13 12 12 12 11 10 9 9 9 9 9 9 9 8 9 10 10 10 9 8 9 8 8 7 7 6 6 5 5 4 4 4 3 2 0 1 2 3 3 3 3
13 12 12 11 10 9 9 8 8 8 8 7 7 6 6 7 8 8 9 9 9 8 7 7 7 6 6 6 6 5 5 4 3 3 2 2 3 3 4 5 4 3 3
11 10 10 9 9 8 8 7 7 6 6 6 5 6 7 7 8 8 8 8 9 9 8 7 7 7 7 7 6 6 5 4 4 4 4 5 6 6 6 6 5 4 3
9 8 8 7 7 6 6 6 5 4 4 4 4 5 7 7 7 7 7 7 8 8 8 8 7 7 7 7 7 7 7 7 6 7 7 7 7 7 8 8 7 6 6
8 6 6 5 5 5 5 4 3 3 3 3 5 5 6 6 7 7 7 7 7 8 8 9 9 8 7 8 8 8 8 9 9 9 10 9 10 9 9 9 9 8 7
7 6 5 5 5 4 4 3 3 3 4 4 5 5 6 7 7 7 7 7 8 8 9 9 9 9 9 8 8 8 8 9 10 10 10 10 10 10 10 8 8 8 8
7 7 6 5 5 5 4 4 3 4 4 4 5 5 6 6 6 7 7 8 8 8 9 9 10 9 9 9 9 9 9 9 9 10 10 10 10 10 9 9 8 8 7

GEFSMW_500_meanwind_156.txt.gz
Wind_Speed
17 18 19 19 18 19 19 20 20 21 21 22 22 23 23 24 24 23 23 23 24 24 25 25 24 25 26 26 26 26 26 26 27 27 27 27 27 27 25 25 25 25 25
17 19 21 21 19 19 20 21 20 21 22 22 23 24 24 24 23 24 24 24 24 25 26 26 25 26 27 28 28 28 28 28 28 28 27 27 27 27 26 26 26 25 25
18 19 20 21 21 21 21 21 21 21 22 23 23 24 24 24 24 24 24 24 25 26 27 27 27 27 28 29 29 29 29 29 29 29 28 27 27 27 27 27 27 26 26
18 19 19 20 21 21 21 21 21 22 23 24 24 25 24 25 25 24 24 25 26 27 28 28 28 28 28 28 28 28 29 29 29 29 29 29 29 28 27 27 27 27 26
18 19 18 20 21 21 21 20 21 23 24 25 25 25 26 26 26 25 26 26 27 27 27 27 27 27 27 27 27 28 29 29 29 30 30 30 29 29 28 27 27 27 26
18 19 19 20 21 21 21 23 23 23 24 25 26 26 27 27 26 27 27 27 27 26 26 26 26 27 27 27 27 28 28 28 29 29 30 30 29 29 29 28 27 27 27
18 18 19 20 21 21 21 22 22 24 25 26 26 27 27 27 26 27 27 27 26 26 25 25 25 25 25 25 25 26 26 27 28 28 28 28 28 29 29 29 28 28 28
18 19 20 20 20 20 21 22 22 23 24 25 25 26 26 25 26 26 26 26 26 26 25 24 24 24 23 23 24 24 25 25 26 26 27 28 28 28 28 29 29 28 28
19 20 20 20 21 22 21 22 23 23 24 24 25 26 25 25 24 25 25 26 25 25 24 23 22 23 23 22 23 23 23 24 23 23 25 26 26 26 26 26 27 28 27
19 20 20 20 21 22 22 21 22 22 23 24 24 24 24 24 24 24 23 24 23 23 23 22 21 21 21 21 21 21 21 21 21 21 22 22 23 24 24 25 26 27 27
19 19 20 21 21 21 21 21 21 22 22 22 22 22 23 23 24 23 23 23 21 21 20 20 20 19 19 19 19 19 19 19 19 19 19 20 20 21 22 22 22 23 24
19 19 19 20 20 20 21 21 21 21 20 20 20 21 21 22 21 21 21 20 20 20 19 19 18 18 18 18 17 17 17 17 17 18 18 18 18 18 18 19 20 20 20
18 19 20 20 19 20 21 20 19 19 19 19 19 19 19 20 19 19 19 19 19 19 18 17 17 17 17 17 16 16 15 15 15 15 16 16 17 16 16 16 16 17 17
18 18 18 18 18 18 18 18 17 16 17 17 17 18 18 17 17 17 18 18 17 17 16 17 16 15 15 15 14 13 13 13 12 13 13 14 14 14 14 14 14 15 15
18 18 16 16 17 17 16 16 15 16 16 16 16 15 15 15 15 15 16 16 16 15 14 14 13 13 12 12 12 11 11 11 10 10 10 11 11 10 10 11 11 12 12
18 17 16 16 16 16 16 15 14 14 15 15 14 14 13 13 14 14 15 15 14 13 13 12 11 11 10 9 9 9 9 8 8 9 9 9 8 8 8 8 8 9 10
17 16 16 16 16 15 14 13 13 14 14 13 12 12 12 12 12 13 13 13 12 11 10 10 9 8 7 6 6 6 6 5 5 6 6 5 5 5 5 5 6 6 7
17 16 16 15 14 14 13 12 12 12 12 11 10 11 10 10 11 11 12 11 11 10 9 8 6 6 5 4 3 4 4 4 3 4 3 2 2 2 2 3 4 4 5
16 15 14 13 12 11 11 10 10 11 10 9 9 9 9 9 9 10 10 10 10 9 8 7 6 6 5 4 4 4 4 4 4 3 2 1 1 1 1 2 3 4 4
14 12 11 10 9 9 8 8 8 8 8 7 7 7 7 7 7 8 9 9 9 8 7 7 6 6 5 5 4 4 4 4 3 3 2 1 1 1 1 2 3 3 4
11 10 9 7 7 7 6 6 6 6 6 6 6 6 6 6 6 7 7 8 8 8 8 8 7 6 5 5 5 5 4 4 4 4 3 3 3 3 4 4 4 4 4
8 7 6 6 6 5 5 5 4 4 4 4 5 5 5 6 6 7 7 7 8 8 8 8 7 6 6 5 5 5 5 5 5 5 5 5 5 5 5 5 4 5 4
6 6 6 5 5 5 4 4 4 4 3 4 5 5 5 5 6 6 7 7 8 8 8 8 8 8 8 7 7 6 6 6 6 6 6 6 7 7 7 6 6 6 5
5 5 5 5 5 5 4 4 4 4 4 4 5 5 5 5 5 6 6 7 7 8 8 9 8 8 8 8 8 8 8 7 7 8 8 8 8 7 7 7 6 6 5
6 5 5 5 5 5 5 5 5 5 5 5 5 5 5 5 5 5 6 7 7 7 8 8 8 8 7 7 8 8 8 8 8 8 8 8 8 8 8 7 7 7 6
6 6 6 6 6 6 6 6 5 5 5 5 6 5 5 5 5 6 6 6 6 6 7 7 8 8 8 8 8 8 8 8 7 7 7 7 6 6 6 6 5 5 4